When you browse on this site, cookies collect data to enhance your experience and personalize the content and advertising you see.
Visit our Privacy Policy to learn more. By continuing to use the site, you agree to this use of cookies and data.

Hourly Weather Aylesbury

Today, 24 September, Thursday

Time Temperature Precipitation Wind Pressure Humidity
00:00 +7°C° 0 mm 4 mps 741 mmHg 86%
01:00 +7°C° 0 mm 4 mps 741 mmHg 87%
02:00 +7°C° 0 mm 4 mps 741 mmHg 89%
03:00 +7°C° 0 mm 4 mps 740 mmHg 90%
04:00 +8°C° 1.1 mm 4 mps 739 mmHg 89%
05:00 +8°C° 1.1 mm 5 mps 739 mmHg 89%
06:00 +9°C° 0 mm 5 mps 738 mmHg 91%
07:00 +10°C° 0 mm 6 mps 738 mmHg 85%
08:00 +10°C° 0 mm 6 mps 738 mmHg 80%
09:00 +11°C° 0 mm 7 mps 738 mmHg 74%
10:00 +12°C° 0.2 mm 7 mps 738 mmHg 70%
11:00 +12°C° 0.2 mm 7 mps 738 mmHg 67%
12:00 +14°C° 0.2 mm 7 mps 738 mmHg 63%
13:00 +14°C° 0.1 mm 7 mps 738 mmHg 62%
14:00 +13°C° 0.1 mm 6 mps 738 mmHg 61%
15:00 +13°C° 0.1 mm 6 mps 737 mmHg 60%
16:00 +12°C° 0.2 mm 5 mps 737 mmHg 66%
17:00 +11°C° 0.2 mm 4 mps 737 mmHg 72%
18:00 +10°C° 0.2 mm 3 mps 736 mmHg 78%
19:00 +10°C° 0.2 mm 2 mps 736 mmHg 79%
20:00 +9°C° 0.2 mm 2 mps 737 mmHg 81%
21:00 +10°C° 0.2 mm 1 mps 737 mmHg 83%
22:00 +9°C° 0.1 mm 1 mps 737 mmHg 83%
23:00 +8°C° 0.1 mm 2 mps 737 mmHg 83%

Tomorrow, 25 September, Friday

Time Temperature Precipitation Wind Pressure Humidity
00:00 +8°C° 0.1 mm 2 mps 737 mmHg 83%
01:00 +8°C° 0 mm 3 mps 737 mmHg 85%
02:00 +7°C° 0 mm 3 mps 738 mmHg 86%
03:00 +6°C° 0 mm 4 mps 738 mmHg 87%
04:00 +7°C° 0 mm 5 mps 739 mmHg 85%
05:00 +6°C° 0 mm 7 mps 740 mmHg 83%
06:00 +7°C° 0 mm 8 mps 741 mmHg 80%
07:00 +7°C° 0 mm 9 mps 742 mmHg 77%
08:00 +7°C° 0 mm 9 mps 743 mmHg 75%
09:00 +7°C° 0 mm 10 mps 744 mmHg 72%
10:00 +8°C° 0 mm 10 mps 744 mmHg 70%
11:00 +8°C° 0 mm 10 mps 745 mmHg 68%
12:00 +8°C° 0 mm 10 mps 746 mmHg 66%
13:00 +10°C° 0 mm 9 mps 746 mmHg 64%
14:00 +10°C° 0 mm 9 mps 747 mmHg 62%
15:00 +10°C° 0 mm 9 mps 748 mmHg 61%
16:00 +9°C° 0 mm 8 mps 748 mmHg 63%
17:00 +9°C° 0 mm 7 mps 749 mmHg 64%
18:00 +9°C° 0 mm 7 mps 750 mmHg 66%
19:00 +8°C° 0 mm 6 mps 750 mmHg 69%
20:00 +8°C° 0 mm 6 mps 751 mmHg 73%
21:00 +7°C° 0 mm 5 mps 752 mmHg 76%
22:00 +7°C° 0 mm 5 mps 752 mmHg 78%
23:00 +6°C° 0 mm 5 mps 752 mmHg 80%

Day after tomorrow, 26 September, Saturday

Time Temperature Precipitation Wind Pressure Humidity
00:00 +6°C° 0 mm 4 mps 752 mmHg 82%
01:00 +5°C° 0 mm 5 mps 752 mmHg 79%
02:00 +5°C° 0 mm 5 mps 752 mmHg 77%
03:00 +5°C° 0 mm 5 mps 752 mmHg 74%
04:00 +3°C° 0 mm 5 mps 752 mmHg 76%
05:00 +4°C° 0 mm 4 mps 752 mmHg 78%
06:00 +4°C° 0 mm 4 mps 752 mmHg 79%
07:00 +5°C° 0 mm 5 mps 752 mmHg 73%
08:00 +5°C° 0 mm 6 mps 752 mmHg 67%
09:00 +8°C° 0 mm 6 mps 753 mmHg 61%
10:00 +9°C° 0 mm 6 mps 752 mmHg 58%
11:00 +10°C° 0 mm 6 mps 752 mmHg 55%
12:00 +10°C° 0 mm 6 mps 752 mmHg 52%
13:00 +10°C° 0 mm 6 mps 752 mmHg 54%
14:00 +10°C° 0 mm 6 mps 752 mmHg 56%
15:00 +10°C° 0 mm 6 mps 752 mmHg 59%
16:00 +9°C° 0 mm 5 mps 752 mmHg 63%
17:00 +9°C° 0 mm 5 mps 752 mmHg 67%
18:00 +8°C° 0 mm 4 mps 752 mmHg 71%
19:00 +8°C° 0 mm 5 mps 752 mmHg 72%
20:00 +7°C° 0 mm 5 mps 752 mmHg 73%
21:00 +7°C° 0 mm 6 mps 753 mmHg 73%
22:00 +7°C° 0 mm 5 mps 753 mmHg 77%
23:00 +6°C° 0 mm 5 mps 753 mmHg 80%

27 September, Sunday

Time Temperature Precipitation Wind Pressure Humidity
00:00 +6°C° 0 mm 5 mps 753 mmHg 83%
01:00 +6°C° 0 mm 5 mps 753 mmHg 84%
02:00 +5°C° 0 mm 5 mps 753 mmHg 84%
03:00 +4°C° 0 mm 6 mps 752 mmHg 85%
04:00 +5°C° 0 mm 5 mps 753 mmHg 84%
05:00 +6°C° 0 mm 5 mps 753 mmHg 83%
06:00 +6°C° 0 mm 5 mps 753 mmHg 82%
07:00 +7°C° 0 mm 5 mps 753 mmHg 79%
08:00 +8°C° 0 mm 6 mps 753 mmHg 76%
09:00 +9°C° 0 mm 6 mps 753 mmHg 73%
10:00 +9°C° 0 mm 6 mps 753 mmHg 72%
11:00 +10°C° 0 mm 6 mps 753 mmHg 70%
12:00 +11°C° 0 mm 6 mps 753 mmHg 69%
13:00 +11°C° 0 mm 6 mps 753 mmHg 69%
14:00 +12°C° 0 mm 5 mps 753 mmHg 69%
15:00 +12°C° 0 mm 5 mps 753 mmHg 69%
16:00 +11°C° 0 mm 4 mps 753 mmHg 72%
17:00 +10°C° 0 mm 3 mps 753 mmHg 75%
18:00 +9°C° 0 mm 3 mps 753 mmHg 78%
19:00 +9°C° 0 mm 2 mps 754 mmHg 81%
20:00 +8°C° 0 mm 2 mps 754 mmHg 84%
21:00 +7°C° 0 mm 2 mps 754 mmHg 87%
22:00 +7°C° 0 mm 2 mps 754 mmHg 87%
23:00 +6°C° 0 mm 2 mps 754 mmHg 87%

28 September, Monday

Time Temperature Precipitation Wind Pressure Humidity
00:00 +7°C° 0 mm 1 mps 754 mmHg 87%
01:00 +7°C° 0 mm 1 mps 754 mmHg 84%
02:00 +7°C° 0 mm 1 mps 754 mmHg 81%
03:00 +7°C° 0 mm 1 mps 754 mmHg 79%
04:00 +6°C° 0 mm 2 mps 753 mmHg 78%
05:00 +6°C° 0 mm 2 mps 753 mmHg 78%
06:00 +6°C° 0 mm 2 mps 753 mmHg 77%
07:00 +7°C° 0 mm 2 mps 753 mmHg 76%
08:00 +9°C° 0 mm 2 mps 753 mmHg 75%
09:00 +11°C° 0 mm 3 mps 753 mmHg 74%
10:00 +11°C° 0 mm 3 mps 753 mmHg 75%
11:00 +12°C° 0 mm 3 mps 753 mmHg 76%
12:00 +13°C° 0 mm 3 mps 753 mmHg 77%
13:00 +14°C° 0 mm 4 mps 753 mmHg 76%
14:00 +15°C° 0 mm 4 mps 752 mmHg 75%
15:00 +18°C° 0 mm 4 mps 752 mmHg 73%
16:00 +17°C° 0 mm 4 mps 752 mmHg 78%
17:00 +16°C° 0 mm 3 mps 752 mmHg 83%
18:00 +14°C° 0 mm 3 mps 752 mmHg 88%
19:00 +14°C° 0.1 mm 3 mps 752 mmHg 90%
20:00 +14°C° 0.1 mm 3 mps 752 mmHg 91%
21:00 +14°C° 0.1 mm 4 mps 753 mmHg 92%
22:00 +13°C° 0 mm 3 mps 753 mmHg 92%
23:00 +12°C° 0 mm 3 mps 753 mmHg 93%

29 September, Tuesday

Time Temperature Precipitation Wind Pressure Humidity
00:00 +12°C° 0 mm 2 mps 753 mmHg 93%
01:00 +10°C° 0 mm 2 mps 753 mmHg 93%
02:00 +10°C° 0 mm 2 mps 753 mmHg 94%
03:00 +9°C° 0 mm 2 mps 754 mmHg 94%
04:00 +8°C° 0 mm 2 mps 754 mmHg 94%
05:00 +8°C° 0 mm 2 mps 754 mmHg 95%
06:00 +8°C° 0 mm 2 mps 754 mmHg 95%
07:00 +9°C° 0 mm 2 mps 754 mmHg 89%
08:00 +12°C° 0 mm 2 mps 755 mmHg 83%
09:00 +13°C° 0 mm 2 mps 755 mmHg 78%
10:00 +14°C° 0 mm 2 mps 755 mmHg 71%
11:00 +15°C° 0 mm 2 mps 755 mmHg 65%
12:00 +16°C° 0 mm 1 mps 755 mmHg 59%
13:00 +18°C° 0 mm 1 mps 754 mmHg 57%
14:00 +18°C° 0 mm 1 mps 754 mmHg 54%
15:00 +16°C° 0 mm 0 mps 754 mmHg 52%
16:00 +15°C° 0 mm 0 mps 753 mmHg 56%
17:00 +14°C° 0 mm 0 mps 753 mmHg 61%
18:00 +12°C° 0 mm 0 mps 753 mmHg 65%
19:00 +13°C° 0 mm 1 mps 753 mmHg 68%
20:00 +12°C° 0 mm 1 mps 753 mmHg 70%
21:00 +12°C° 0 mm 1 mps 752 mmHg 72%
22:00 +11°C° 0 mm 1 mps 752 mmHg 74%
23:00 +11°C° 0 mm 1 mps 751 mmHg 76%
Show more